Race Results for
Tour del Paso
El Paso, TX
(Event Information)
Road Race on 04/13/2008

Note: Ranking points are NOT upgrade points. An explanation of ranking points can be found here.


Men - JR - 10-18

 Place Points NameCity, StateTime USAC #BibTeam
1 Carlos Gabriel CANO ALZAGA   02:06:44  480 Uach
2 Fidel Goytia   El Paso02:07:10 262609  479 Vinci Bike
3 Enrique GUIZAR   02:07:16  477 Uach
4 Fernando FLORES   02:16:23  506 
5 Edgardo Rojas Tarange   El Paso, TX02:26:13 275698  494 Pingos De Juarez
6 Miguel MEHUYS   02:33:07  478 Uach
7 Luis Enrique CREEL   02:37:23  492 Rica Burger B
8 Joshua Conter   Tempe, AZ02:41:27 276512  476 Zia Velo Juniors
9 Edgar MARTINEZ ANCHONDO   02:43:21  499 Uach

Men - MR - 35-99

 Place Points NameCity, StateTime USAC #BibTeam
1 Thomas Cunico   Las Cruces, NM02:10:38 162136  157 Zia Velo B
2 Alejandro Gonzalez   El Paso, TX02:10:40 66228  111 Team El Paso
3 tomas mercado   El Paso, TX02:10:40 277644  119 Healthmaxx
4 Gerardo Chaparro   Allen, TX02:10:42 89918  107 Healthmaxx
5 David Wilson   El Paso, TX02:13:26 38515  125 
6 Donald Ward   El Paso, TX02:13:48 49826  166 
7 Randolph Ortega   El Paso, TX02:13:49 188655  120 Healthmaxx
8 Cid LOPEZ   02:13:49  115 
9 Paul Griffiths   Las Cruces, NM02:13:50 168815  113 Zia Velo B
10 Bill Dahl   Corrales, NM02:13:50 272907  158 C Sport Systems Mountaintop CyclingC
11 Michael Elmer   Colorado Springs, CO02:13:51 50807  109 Heart Hospital Of NM
12 David Rutledge   Las Cruces, NM02:13:54 63661  124 Zia Velo B
13 Craig Liming   Hereford, AZ02:14:57 113000  176 Thunder Mountain Cycling
14 Alan Rishel   Las Cruces, NM02:15:05 29975  161 Zia Velo B
15 Javier Saucedo   El Paso, TX02:15:48 106346  122 Team El Paso
16 Ricardo Gomez   El Paso, TX02:15:55 13587  159 Team El Paso
17 Robert DesEnfants II   Bozeman, MT02:16:02 50954  151 Zia Velo B
18 Bruce Gerdes   El Paso, TX02:16:02 49948  110 Team El Paso
19 Alfredo Chaparro   El Paso, TX02:17:54 212544  106 Healthmaxx
20 Igor Broes   Magnolia, TX02:20:34 240992  179 AAA Express Printing
21 Rick Varela   El Paso, TX02:20:35 169320  163 Healthmaxx
22 Garza Jose LOPEZ   02:20:35  169 Enzacta
23 Juan Loya   Elpaso, TX02:20:36 278457  165 
24 James Salazar   El Paso, TX02:22:44 66539  162 
25 Efren LUJAN   02:23:51  117 Healthmaxx
26 Romo LOPEZ   02:23:53  116 
27 Richard Ortega   El Paso, TX02:23:55 197294  160 Healthmaxx
28 Heiko BUSS   02:24:03  156 
29 Ricardo Chaparro   El Paso, TX02:24:08 169398  108 Richard's Cycle Sports
30 Armando Durazo   El Paso, TX02:24:19 141274  177 Edge
31 STEVEN TORRES   El Paso, TX02:32:25 275020  126 Healthmaxx
32 Juan Hernandez   El Paso, TX02:34:53 107087  114 Healthmaxx
33 Jose Silva   El Paso, TX02:35:10 65946  129 El Paso
34 Ray SEAVERS   02:38:06  180 
35 Waldo TERRAZAS   02:43:46  127 
36 Cesar TERRAZAS   02:47:41  123 
37 Jose Ruiz   El Paso, TX02:53:24 64792  121 

Men - Pro/Cat 1/2

 Place Points NameCity, StateTime USAC #BibTeam
1 Anthony Colby   Dedham, MA03:56:46 118320  Colavita/Sutter Home PB Cooking Light
2 Matt Shriver (1 - Pro)   Durango, CO03:56:55 110703  Jittery Joe's
3 Damian Calvert   Albuquerque, NM03:57:02 81251  A Sport Systems Mountaintop Cycling
4 Joshua Liberles   Portland, OR03:57:05 208558  14 Colavita/Sutter Home PB Cooking Light
5 Travis Dixon   Albuquerque, NM04:00:36 74064  A Sport Systems Mountaintop Cycling
6 Ryan Blickem   Las Cruces, NM04:00:37 83581  Landis
7 Gilberto PORRAS   04:00:40  17 Rica Burgur
8 Scott Hubbard   Albuquerque, NM04:00:42 190601  11 Khsnm.Com Cycling Team
9 Juan Pablo VILLELA   04:00:48  32 Rica Burgur
10 Albert Senft (1 - Cat1)   Albuquerque, NM04:00:48 32168  19 Colavita/Sutter Home PB Cooking Light
11 Mario ARMENDARIZ   04:00:53  23 Rica Burgur
12 Michael McCalla   Santa Fe, NM04:08:24 23198  A Sport Systems Mountaintop Cycling
13 Michael Carroll   Durango, CO04:08:27 175586  28 Durango Wheel Club
14 David Rendon   Lubbock, TX04:12:14 223674  18 Colavita/Sutter Home PB Cooking Light
15 Scott Kasin   Carbondale, CO04:12:20 115958  35 Matrix / Rbm
16 Brian Palen   Seattle, WA04:17:53 186715  16 Colavita/Sutter Home PB Cooking Light
17 Antonio VELAZQUEZ   04:22:11  31 Rica Burgur
18 Paul Ward   Virginia Beach, VA04:22:16 166933  21 Richmond Pro Cycling By Natures Path
19 Marty Moriarty   Albuquerque, NM04:22:16 25084  15 A Sport Systems Mountaintop Cycling
20 Matthew Jones   Lakewood, CO04:22:16 225189  12 NMSU
21 Henry Swinty   Fort Wayne, IN04:38:25 48628  30 Rica Burgur
22 Ricardo ARRAS   04:38:26  24 Rica Burgur

Men - Cat 3

 Place Points NameCity, StateTime USAC #BibTeam
1 Sean Peck   Durango, CO04:20:54 135664  352 3Dracing
2 Santiago Chavez   El Paso, TX04:20:55 158616  346 B Sport Systems Mountaintop CyclingB
3 Isidro Solano   Corrales, NM04:20:56 244536  350 Zia Velo
4 Douglas VanGoethem   Albuquerque, NM04:21:08 170326  345 New Mexico Velo Sport
5 Josh Rider   Albuquerque, NM04:21:15 237958  343 New Mexico Velo Sport
6 Jonathan Rath   Albuquerque, NM04:23:05 50789  349 NMBRA
7 Matt Chanin   Albuquerque, NM04:23:16 6615  342 B Sport Systems Mountaintop CyclingB
8 Nathaniel Shay   Silver City, NM04:51:25 32358  354 

Men - Cat 4/5

 Place Points NameCity, StateTime USAC #BibTeam
1 Jesus Chaparro   Allen, TX02:07:09 61012  433 
2 Jesse Seavers (1 - Cat5)   Pinos Altos, NM02:07:10 274243  420 
3 Gerd PFISTER   02:07:10  402 
4 Michael Robinson   Crested Butte, CO02:07:10 251817  424 6'S & 7'S Racing
5 Mike Warren   Los Alamos, NM02:07:10 272632  428 
6 David Ubinger   El Paso, TX02:07:11 253918  426 Revolution Cyclery
7 Rod Michael   Simpsonville, SC02:07:15 79980  423 C Sport Systems Mountaintop CyclingC
8 Matthew Konyn   Canton, MI02:07:20 222731  404 
9 Peter Durso   Albuquerque, NM02:07:21 244489  414 
10 Brian Robinson   Silver City, NM02:07:26 30169  405 6'S & 7'S Racing
11 Daniel Varela   El Paso, TX02:07:33 262236  427 Healthmaxx
12 Jean Paul Fontana   Santa Fe, NM02:10:32 251814  431 Bike N Sport
13 Phil ARNOLD   02:16:22  445 
14 Cesar ESPINOZA   02:16:24  437 Ciclismo Jerez
15 Ruben ROSALES   02:16:26  425 
16 manuel garza   El Paso, TX02:16:31 272885  416 Enzacta
17 Jason ATKINSON   02:19:04  439 
18 Ronald McIntosh (2 - Cat5)   Silver City, NM02:19:08 274233  422 Biciclub
19 Jeff Becker (3 - Cat5)   Las Cruces, NM02:24:52 275251  410 Zia Velo B
20 Jeff SOUDER   02:24:52  444 
21 Carlos ALARCON   02:26:05  408 
22 Cesar Simmons   El Paso, TX02:26:09 215627  430 Major Motion Senior
23 gilberto betance (4 - Cat5)    El Paso, TX02:26:15 272423  412 Kawi Btt
24 Ray Frias   Austin, TX02:26:41 246424  415 
25 Gregory GOUVEIA   02:32:35  438 
26 Will HOPWOOD   02:33:26  419 6'S & 7'S Racing
27 Carlos Monzon   El Paso, TX02:33:30 221218  429 
28 Javier CABELLERO   02:33:33  441 
29 Gustavo FIERRO   02:33:36  436 
30 Brad Wilkinson   Las Cruces, NM02:33:39 273272  434 Zia Velo B
31 Adrian ALARCON   02:33:45  407 
32 Rob BECKER   02:33:50  411 
33 Adolfo GOMEZ   02:37:18  440 
34 Peter Hayes   Las Cruces, NM02:51:09 224315  418 
35 Mike Ladig   Albuquerque, NM02:58:00 277145  446 
36 Craig Miranda   Silver City, NM02:59:33 250760  435 
37 Victor Acosta   El Paso, TX03:31:31 248760  406 
38 Juan AMADOR   03:49:54  409 
39 Humberto GONZALEZ   04:09:21  417 Coyotes De Juarez

Women - Cat 1/2

 Place Points NameCity, StateTime USAC #BibTeam
1 Marisa Asplund-Owens (1 - Cat1)   Durango, CO2:37:19 209181  206 Cheerwine
2 Jennifer Wilson   El Paso, TX2:38:17 113826  201 Velo Bella-Kona
3 Josephine Nelson   Lakewood, CO2:38:28 225188  207 Velo Bella-Kona
4 Shannon Gibson   Durango, CO2:42:37 156279  202 Velo Bella-Kona
5 Daniela Gandara   Alhambra, CA2:44:07 205934  203 Colavita NM P/B JNF Enterprises Inc.

Women - Cat 3

 Place Points NameCity, StateTime USAC #BibTeam
1 Liz Cash   Albuquerque, NM2:41:55 260546  257 Colavita NM P/B JNF Enterprises Inc.
2 Karen Rishel   Las Cruces, NM2:51:50 206564  256 Velo Bella-Kona

Women - Cat 4

 Place Points NameCity, StateTime USAC #BibTeam
1 Siah Hemphill   Silver City, NM2:51:57 277956  283 
2 Amber Shay   Silver City, NM2:53:39 142990  284 Sono Bici Mastercraft
3 Paulina Lopez   El Paso, TX2:58:59 206531  279 Colavita NM P/B JNF Enterprises Inc.
4 Patty Van Tine   El Paso, TX3:13:51 276081  281 

Report missing or incorrect license numbers

Volkswagen
SpyShimanoSierra NevadaBonk BreakerOSMOCUOREUSACDF
UCI USA Cycling is the official governing body for all disciplines of competitive cycling in the United States. The 501c3, membership-based organization aims both to achieve sustained success in international cycling competition and to grow competitive cycling in America while delivering an exceptional customer experience.
View Children's Online Privacy Protection Policy
US Olympic Committee